Time,TemperatureF,DewpointF,PressureIn,WindDirection,WindDirectionDegrees,WindSpeedMPH,WindSpeedGustMPH,Humidity,HourlyPrecipIn,Conditions,Clouds,dailyrainin,SolarRadiationWatts/m^2,SoftwareType,DateUTC
2014-09-18 00:00:00,59.7,56.8,29.94,ENE,68,0.0,0.0,90,0.00,CLR,,0.00,0.0,WeatherDisplay:10.37,2014-09-18 04:00:00,
2014-09-18 00:05:00,59.6,57.0,29.93,ENE,68,0.0,0.0,91,0.00,CLR,,0.00,0.0,WeatherDisplay:10.37,2014-09-18 04:05:00,
2014-09-18 00:10:00,59.5,56.9,29.93,ENE,68,0.0,0.0,91,0.00,CLR,,0.00,0.0,WeatherDisplay:10.37,2014-09-18 04:10:00,
2014-09-18 00:15:00,59.5,56.9,29.93,ENE,68,0.0,0.0,91,0.00,CLR,,0.00,0.0,WeatherDisplay:10.37,2014-09-18 04:15:00,
2014-09-18 00:20:00,59.5,56.9,29.94,ENE,68,0.0,0.0,91,0.00,CLR,,0.00,0.0,WeatherDisplay:10.37,2014-09-18 04:20:00,
2014-09-18 00:25:00,59.5,56.9,29.94,ENE,68,0.0,0.0,91,0.00,CLR,,0.00,0.0,WeatherDisplay:10.37,2014-09-18 04:25:00,
2014-09-18 00:30:00,59.6,57.0,29.94,ENE,68,0.0,0.0,91,0.00,CLR,,0.00,0.0,WeatherDisplay:10.37,2014-09-18 04:30:00,
2014-09-18 00:35:00,59.8,57.2,29.94,ENE,68,0.0,0.0,91,0.00,CLR,,0.00,0.0,WeatherDisplay:10.37,2014-09-18 04:35:00,
2014-09-18 00:40:00,60.0,57.7,29.94,ENE,68,0.0,0.0,92,0.00,CLR,,0.00,0.0,WeatherDisplay:10.37,2014-09-18 04:40:00,
2014-09-18 00:45:00,60.2,58.2,29.95,ENE,68,0.0,0.0,93,0.00,CLR,,0.00,0.0,WeatherDisplay:10.37,2014-09-18 04:45:00,
2014-09-18 00:50:00,60.4,58.4,29.95,ENE,68,0.0,0.0,93,0.00,CLR,,0.00,0.0,WeatherDisplay:10.37,2014-09-18 04:50:00,
2014-09-18 00:55:00,60.6,58.9,29.95,ENE,68,0.0,0.0,94,0.00,CLR,,0.00,0.0,WeatherDisplay:10.37,2014-09-18 04:55:00,
2014-09-18 00:58:00,60.8,59.1,29.95,ENE,68,0.0,0.0,94,0.00,CLR,,0.00,0.0,WeatherDisplay:10.37,2014-09-18 04:58:00,
2014-09-18 01:03:00,60.9,59.2,29.95,ENE,68,0.0,0.0,94,0.00,CLR,,0.00,0.0,WeatherDisplay:10.37,2014-09-18 05:03:00,
2014-09-18 01:08:00,61.1,59.1,29.95,ENE,68,0.0,0.0,93,0.00,CLR,,0.00,0.0,WeatherDisplay:10.37,2014-09-18 05:08:00,
2014-09-18 01:13:00,61.3,59.6,29.95,ENE,68,0.0,0.0,94,0.00,CLR,,0.00,0.0,WeatherDisplay:10.37,2014-09-18 05:13:00,
2014-09-18 01:18:00,61.5,59.8,29.95,ENE,68,0.0,0.0,94,0.00,CLR,,0.00,0.0,WeatherDisplay:10.37,2014-09-18 05:18:00,
2014-09-18 01:24:00,61.7,60.0,29.95,ENE,68,0.0,0.0,94,0.00,CLR,,0.00,0.0,WeatherDisplay:10.37,2014-09-18 05:24:00,
2014-09-18 01:29:00,61.9,60.2,29.95,ENE,68,0.0,0.0,94,0.00,CLR,,0.00,0.0,WeatherDisplay:10.37,2014-09-18 05:29:00,
2014-09-18 01:34:00,62.1,60.4,29.95,ENE,68,0.0,0.0,94,0.00,CLR,,0.00,0.0,WeatherDisplay:10.37,2014-09-18 05:34:00,
2014-09-18 01:39:00,62.2,60.5,29.95,ENE,68,0.0,0.0,94,0.00,CLR,,0.00,0.0,WeatherDisplay:10.37,2014-09-18 05:39:00,
2014-09-18 01:44:00,62.4,60.7,29.95,ENE,68,0.0,0.0,94,0.00,CLR,,0.00,0.0,WeatherDisplay:10.37,2014-09-18 05:44:00,
2014-09-18 01:49:00,62.6,60.8,29.95,ENE,68,0.0,0.0,94,0.00,CLR,,0.00,0.0,WeatherDisplay:10.37,2014-09-18 05:49:00,
2014-09-18 01:54:00,62.9,61.4,29.95,ENE,68,0.0,0.0,95,0.00,CLR,,0.00,0.0,WeatherDisplay:10.37,2014-09-18 05:54:00,
2014-09-18 01:59:00,63.1,61.6,29.95,ENE,68,0.0,0.0,95,0.00,CLR,,0.00,0.0,WeatherDisplay:10.37,2014-09-18 05:59:00,
2014-09-18 02:04:00,63.3,61.5,29.95,ENE,68,0.0,0.0,94,0.00,CLR,,0.00,0.0,WeatherDisplay:10.37,2014-09-18 06:04:00,
2014-09-18 02:09:00,63.4,61.9,29.95,ENE,68,0.0,0.0,95,0.00,CLR,,0.00,0.0,WeatherDisplay:10.37,2014-09-18 06:09:00,
2014-09-18 02:14:00,63.7,62.2,29.95,ENE,68,0.0,0.0,95,0.00,CLR,,0.00,0.0,WeatherDisplay:10.37,2014-09-18 06:14:00,
2014-09-18 02:19:00,63.9,62.4,29.95,ENE,68,0.0,0.0,95,0.00,CLR,,0.00,0.0,WeatherDisplay:10.37,2014-09-18 06:19:00,
2014-09-18 02:24:00,64.1,62.6,29.94,ENE,68,0.0,0.0,95,0.00,CLR,,0.00,0.0,WeatherDisplay:10.37,2014-09-18 06:24:00,
2014-09-18 02:29:00,64.3,62.8,29.95,ENE,68,0.0,0.0,95,0.00,CLR,,0.00,0.0,WeatherDisplay:10.37,2014-09-18 06:29:00,
2014-09-18 02:34:00,64.4,62.9,29.94,ENE,68,0.0,0.0,95,0.00,CLR,,0.00,0.0,WeatherDisplay:10.37,2014-09-18 06:34:00,
2014-09-18 02:39:00,64.5,63.0,29.94,ENE,68,0.0,0.0,95,0.00,CLR,,0.00,0.0,WeatherDisplay:10.37,2014-09-18 06:39:00,
2014-09-18 02:44:00,64.7,63.2,29.94,ENE,68,1.2,1.2,95,0.00,CLR,,0.00,0.0,WeatherDisplay:10.37,2014-09-18 06:44:00,
2014-09-18 02:49:00,64.7,63.2,29.94,ENE,68,0.0,0.0,95,0.00,CLR,,0.00,0.0,WeatherDisplay:10.37,2014-09-18 06:49:00,
2014-09-18 02:54:00,64.8,63.3,29.94,ENE,68,0.0,0.0,95,0.00,CLR,,0.00,0.0,WeatherDisplay:10.37,2014-09-18 06:54:00,
2014-09-18 02:59:00,64.9,63.4,29.93,ENE,68,0.0,0.0,95,0.00,CLR,,0.00,0.0,WeatherDisplay:10.37,2014-09-18 06:59:00,
2014-09-18 03:04:00,64.9,63.1,29.93,ENE,68,0.0,0.0,94,0.00,CLR,,0.00,0.0,WeatherDisplay:10.37,2014-09-18 07:04:00,
2014-09-18 03:09:00,64.9,63.1,29.93,ENE,68,0.0,0.0,94,0.00,CLR,,0.00,0.0,WeatherDisplay:10.37,2014-09-18 07:09:00,
2014-09-18 03:14:00,64.9,63.1,29.93,ENE,68,0.0,0.0,94,0.00,CLR,,0.00,0.0,WeatherDisplay:10.37,2014-09-18 07:14:00,
2014-09-18 03:19:00,64.9,63.1,29.93,ENE,68,0.0,0.0,94,0.00,CLR,,0.00,0.0,WeatherDisplay:10.37,2014-09-18 07:19:00,
2014-09-18 03:24:00,64.9,63.1,29.93,ENE,68,0.0,0.0,94,0.00,CLR,,0.00,0.0,WeatherDisplay:10.37,2014-09-18 07:24:00,
2014-09-18 03:29:00,64.9,63.1,29.93,ENE,68,0.0,0.0,94,0.00,CLR,,0.00,0.0,WeatherDisplay:10.37,2014-09-18 07:29:00,
2014-09-18 03:34:00,64.9,63.1,29.93,ENE,68,0.0,0.0,94,0.00,CLR,,0.00,0.0,WeatherDisplay:10.37,2014-09-18 07:34:00,
2014-09-18 03:39:00,64.8,63.0,29.93,ENE,68,0.0,0.0,94,0.00,CLR,,0.00,0.0,WeatherDisplay:10.37,2014-09-18 07:39:00,
2014-09-18 03:44:00,64.7,62.9,29.93,ENE,68,0.0,0.0,94,0.00,CLR,,0.00,0.0,WeatherDisplay:10.37,2014-09-18 07:44:00,
2014-09-18 03:48:00,64.6,62.8,29.93,ENE,68,0.0,0.0,94,0.00,CLR,,0.00,0.0,WeatherDisplay:10.37,2014-09-18 07:48:00,
2014-09-18 03:53:00,64.5,62.7,29.92,ENE,68,0.0,0.0,94,0.00,CLR,,0.00,0.0,WeatherDisplay:10.37,2014-09-18 07:53:00,
2014-09-18 03:58:00,64.3,62.5,29.92,ENE,68,0.0,0.0,94,0.00,CLR,,0.00,0.0,WeatherDisplay:10.37,2014-09-18 07:58:00,
2014-09-18 04:03:00,64.2,62.4,29.92,ENE,68,0.0,0.0,94,0.00,CLR,,0.00,0.0,WeatherDisplay:10.37,2014-09-18 08:03:00,
2014-09-18 04:08:00,64.1,62.3,29.92,ENE,68,0.0,0.0,94,0.00,CLR,,0.00,0.0,WeatherDisplay:10.37,2014-09-18 08:08:00,
2014-09-18 04:13:00,63.9,62.1,29.92,ENE,68,0.0,0.0,94,0.00,CLR,,0.00,0.0,WeatherDisplay:10.37,2014-09-18 08:13:00,
2014-09-18 04:18:00,63.8,62.0,29.92,ENE,68,0.0,0.0,94,0.00,CLR,,0.00,0.0,WeatherDisplay:10.37,2014-09-18 08:18:00,
2014-09-18 04:23:00,63.7,61.9,29.92,ENE,68,0.0,0.0,94,0.00,CLR,,0.00,0.0,WeatherDisplay:10.37,2014-09-18 08:23:00,
2014-09-18 04:28:00,63.6,62.1,29.92,ENE,68,0.0,0.0,95,0.00,CLR,,0.00,0.0,WeatherDisplay:10.37,2014-09-18 08:28:00,
2014-09-18 04:33:00,63.5,61.7,29.92,ENE,68,0.0,0.0,94,0.00,CLR,,0.00,0.0,WeatherDisplay:10.37,2014-09-18 08:33:00,
2014-09-18 04:38:00,63.4,61.9,29.92,ENE,68,0.0,0.0,95,0.00,CLR,,0.00,0.0,WeatherDisplay:10.37,2014-09-18 08:38:00,
2014-09-18 04:43:00,63.3,61.8,29.92,ENE,68,0.0,0.0,95,0.00,CLR,,0.00,0.0,WeatherDisplay:10.37,2014-09-18 08:43:00,
2014-09-18 04:48:00,63.3,61.8,29.92,ENE,68,0.0,0.0,95,0.00,CLR,,0.00,0.0,WeatherDisplay:10.37,2014-09-18 08:48:00,
2014-09-18 04:53:00,63.3,61.8,29.93,ENE,68,0.0,0.0,95,0.00,CLR,,0.00,0.0,WeatherDisplay:10.37,2014-09-18 08:53:00,
2014-09-18 04:58:00,63.3,61.8,29.93,ENE,68,1.2,0.0,95,0.00,CLR,,0.00,0.0,WeatherDisplay:10.37,2014-09-18 08:58:00,
2014-09-18 05:03:00,63.1,61.6,29.93,ENE,68,0.0,0.0,95,0.00,CLR,,0.00,0.0,WeatherDisplay:10.37,2014-09-18 09:03:00,
2014-09-18 05:08:00,63.1,61.9,29.93,ENE,68,0.0,0.0,96,0.00,CLR,,0.00,0.0,WeatherDisplay:10.37,2014-09-18 09:08:00,
2014-09-18 05:13:00,63.1,61.9,29.93,ENE,68,0.0,0.0,96,0.00,CLR,,0.00,0.0,WeatherDisplay:10.37,2014-09-18 09:13:00,
2014-09-18 05:18:00,63.2,62.0,29.93,ENE,68,0.0,0.0,96,0.00,CLR,,0.00,0.0,WeatherDisplay:10.37,2014-09-18 09:18:00,
2014-09-18 05:23:00,63.2,62.0,29.93,ENE,68,0.0,0.0,96,0.00,CLR,,0.00,0.0,WeatherDisplay:10.37,2014-09-18 09:23:00,
2014-09-18 05:28:00,63.2,62.0,29.93,ENE,68,0.0,0.0,96,0.00,CLR,,0.00,0.0,WeatherDisplay:10.37,2014-09-18 09:28:00,
2014-09-18 05:33:00,63.1,61.9,29.93,ENE,68,0.0,0.0,96,0.00,CLR,,0.00,0.0,WeatherDisplay:10.37,2014-09-18 09:33:00,
2014-09-18 05:38:00,63.1,61.9,29.93,ENE,68,0.0,0.0,96,0.00,CLR,,0.00,0.0,WeatherDisplay:10.37,2014-09-18 09:38:00,
2014-09-18 05:43:00,63.0,61.8,29.94,ENE,68,0.0,0.0,96,0.00,CLR,,0.00,0.0,WeatherDisplay:10.37,2014-09-18 09:43:00,
2014-09-18 05:48:00,63.0,61.8,29.94,ENE,68,0.0,0.0,96,0.00,CLR,,0.00,0.0,WeatherDisplay:10.37,2014-09-18 09:48:00,
2014-09-18 05:53:00,62.8,61.6,29.94,ENE,68,0.0,0.0,96,0.00,CLR,,0.00,0.0,WeatherDisplay:10.37,2014-09-18 09:53:00,
2014-09-18 05:58:00,62.6,61.4,29.94,ENE,68,0.0,0.0,96,0.00,CLR,,0.00,0.0,WeatherDisplay:10.37,2014-09-18 09:58:00,
2014-09-18 06:03:00,62.5,61.3,29.94,ENE,68,0.0,0.0,96,0.00,CLR,,0.00,0.0,WeatherDisplay:10.37,2014-09-18 10:03:00,
2014-09-18 06:08:00,62.3,61.1,29.94,ENE,68,0.0,0.0,96,0.00,CLR,,0.00,0.0,WeatherDisplay:10.37,2014-09-18 10:08:00,
2014-09-18 06:13:00,62.3,61.1,29.94,ENE,68,0.0,0.0,96,0.00,CLR,,0.00,0.0,WeatherDisplay:10.37,2014-09-18 10:13:00,
2014-09-18 06:18:00,62.2,61.0,29.93,ENE,68,0.0,0.0,96,0.00,CLR,,0.00,0.0,WeatherDisplay:10.37,2014-09-18 10:18:00,
2014-09-18 06:23:00,62.1,60.9,29.93,ENE,68,0.0,0.0,96,0.00,CLR,,0.00,0.0,WeatherDisplay:10.37,2014-09-18 10:23:00,
2014-09-18 06:25:00,62.1,60.9,29.93,ENE,68,0.0,0.0,96,0.00,CLR,,0.00,0.0,WeatherDisplay:10.37,2014-09-18 10:25:00,
2014-09-18 06:30:00,62.0,60.8,29.94,ENE,68,0.0,0.0,96,0.00,CLR,,0.00,0.0,WeatherDisplay:10.37,2014-09-18 10:30:00,
2014-09-18 06:35:00,61.9,60.7,29.94,ENE,68,0.0,0.0,96,0.00,CLR,,0.00,0.0,WeatherDisplay:10.37,2014-09-18 10:35:00,
2014-09-18 06:40:00,61.7,60.5,29.94,ENE,68,0.0,0.0,96,0.00,CLR,,0.00,0.0,WeatherDisplay:10.37,2014-09-18 10:40:00,
2014-09-18 06:45:00,61.4,60.0,29.94,ENE,68,0.0,0.0,95,0.00,CLR,,0.00,0.0,WeatherDisplay:10.37,2014-09-18 10:45:00,
2014-09-18 06:50:00,61.1,60.0,29.94,ENE,68,0.0,0.0,96,0.00,CLR,,0.00,0.0,WeatherDisplay:10.37,2014-09-18 10:50:00,
2014-09-18 06:53:00,61.1,60.0,29.94,ENE,68,0.0,0.0,96,0.00,CLR,,0.00,0.0,WeatherDisplay:10.37,2014-09-18 10:53:00,
2014-09-18 06:58:00,61.1,60.0,29.94,ENE,68,0.0,0.0,96,0.00,CLR,,0.00,0.0,WeatherDisplay:10.37,2014-09-18 10:58:00,
2014-09-18 07:03:00,61.1,60.2,29.94,ENE,68,0.0,0.0,97,0.00,CLR,,0.00,0.0,WeatherDisplay:10.37,2014-09-18 11:03:00,
2014-09-18 07:08:00,61.2,60.3,29.94,ENE,68,0.0,0.0,97,0.00,CLR,,0.00,0.0,WeatherDisplay:10.37,2014-09-18 11:08:00,
2014-09-18 07:13:00,61.2,60.3,29.94,ENE,68,0.0,0.0,97,0.00,CLR,,0.00,0.0,WeatherDisplay:10.37,2014-09-18 11:13:00,
2014-09-18 07:18:00,61.2,60.3,29.94,ENE,69,0.0,0.0,97,0.00,CLR,,0.00,0.0,WeatherDisplay:10.37,2014-09-18 11:18:00,
2014-09-18 07:23:00,61.3,60.4,29.95,ENE,69,0.0,0.0,97,0.00,CLR,,0.00,0.0,WeatherDisplay:10.37,2014-09-18 11:23:00,
2014-09-18 07:28:00,61.2,60.3,29.95,ENE,69,0.0,0.0,97,0.00,CLR,,0.00,5.0,WeatherDisplay:10.37,2014-09-18 11:28:00,
2014-09-18 07:33:00,60.9,59.8,29.95,ENE,69,0.0,0.0,96,0.00,CLR,,0.00,9.0,WeatherDisplay:10.37,2014-09-18 11:33:00,
2014-09-18 07:38:00,60.4,59.3,29.95,ENE,69,0.0,0.0,96,0.00,CLR,,0.00,11.0,WeatherDisplay:10.37,2014-09-18 11:38:00,
2014-09-18 07:43:00,60.2,59.1,29.95,ENE,69,0.0,0.0,96,0.00,CLR,,0.00,12.0,WeatherDisplay:10.37,2014-09-18 11:43:00,
2014-09-18 07:48:00,60.2,59.3,29.95,ENE,69,0.0,0.0,97,0.00,CLR,,0.00,16.0,WeatherDisplay:10.37,2014-09-18 11:48:00,
2014-09-18 07:53:00,60.2,59.3,29.96,NNW,342,0.0,0.0,97,0.00,CLR,,0.00,18.0,WeatherDisplay:10.37,2014-09-18 11:53:00,
2014-09-18 07:58:00,60.2,59.3,29.96,NNW,342,0.0,0.0,97,0.00,CLR,,0.00,19.0,WeatherDisplay:10.37,2014-09-18 11:58:00,
2014-09-18 08:03:00,59.8,58.7,29.96,NNW,342,0.0,0.0,96,0.00,CLR,,0.00,23.0,WeatherDisplay:10.37,2014-09-18 12:03:00,
2014-09-18 08:08:00,59.6,58.5,29.96,NNW,342,0.0,0.0,96,0.00,CLR,,0.00,30.0,WeatherDisplay:10.37,2014-09-18 12:08:00,
2014-09-18 08:13:00,59.5,58.6,29.96,NNW,342,0.0,0.0,97,0.00,CLR,,0.00,39.0,WeatherDisplay:10.37,2014-09-18 12:13:00,
2014-09-18 08:18:00,59.6,58.7,29.96,NNW,342,0.0,0.0,97,0.00,CLR,,0.00,39.0,WeatherDisplay:10.37,2014-09-18 12:18:00,
2014-09-18 08:23:00,59.8,58.9,29.96,NNW,342,0.0,0.0,97,0.00,CLR,,0.00,37.0,WeatherDisplay:10.37,2014-09-18 12:23:00,
2014-09-18 08:28:00,59.9,59.0,29.97,NNW,342,0.0,0.0,97,0.00,CLR,,0.00,39.0,WeatherDisplay:10.37,2014-09-18 12:28:00,
2014-09-18 08:33:00,60.1,59.2,29.96,NNW,342,0.0,0.0,97,0.00,CLR,,0.00,47.0,WeatherDisplay:10.37,2014-09-18 12:33:00,
2014-09-18 08:38:00,60.5,59.9,29.96,NNW,342,0.0,0.0,98,0.00,CLR,,0.00,44.0,WeatherDisplay:10.37,2014-09-18 12:38:00,
2014-09-18 08:43:00,60.8,60.2,29.97,NNW,342,0.0,0.0,98,0.00,CLR,,0.00,28.0,WeatherDisplay:10.37,2014-09-18 12:43:00,
2014-09-18 08:48:00,61.1,60.5,29.96,NNW,342,0.0,0.0,98,0.00,CLR,,0.00,28.0,WeatherDisplay:10.37,2014-09-18 12:48:00,
2014-09-18 08:53:00,61.4,60.8,29.96,NNW,342,0.0,0.0,98,0.00,CLR,,0.00,33.0,WeatherDisplay:10.37,2014-09-18 12:53:00,
2014-09-18 08:58:00,61.8,61.2,29.96,NNE,29,1.2,0.0,98,0.00,CLR,,0.00,35.0,WeatherDisplay:10.37,2014-09-18 12:58:00,
2014-09-18 09:03:00,62.1,61.5,29.97,South,186,2.3,2.3,98,0.00,OVC,,0.00,39.0,WeatherDisplay:10.37,2014-09-18 13:03:00,
2014-09-18 09:08:00,62.5,61.9,29.97,South,186,0.0,0.0,98,0.00,OVC,,0.00,44.0,WeatherDisplay:10.37,2014-09-18 13:08:00,
2014-09-18 09:13:00,62.7,62.1,29.97,West,259,1.2,0.0,98,0.00,OVC,,0.00,49.0,WeatherDisplay:10.37,2014-09-18 13:13:00,
2014-09-18 09:14:00,62.7,62.1,29.97,West,259,0.0,0.0,98,0.00,OVC,,0.00,51.0,WeatherDisplay:10.37,2014-09-18 13:14:00,
2014-09-18 09:19:00,62.9,62.3,29.97,West,259,0.0,0.0,98,0.00,OVC,,0.00,65.0,WeatherDisplay:10.37,2014-09-18 13:19:00,
2014-09-18 09:24:00,63.0,62.4,29.97,WNW,288,1.2,1.2,98,0.00,OVC,,0.00,288.0,WeatherDisplay:10.37,2014-09-18 13:24:00,
2014-09-18 09:29:00,63.2,62.6,29.97,WNW,288,0.0,0.0,98,0.00,OVC,,0.00,338.0,WeatherDisplay:10.37,2014-09-18 13:29:00,
2014-09-18 09:34:00,63.4,62.8,29.97,NW,311,0.0,0.0,98,0.00,OVC,,0.00,353.0,WeatherDisplay:10.37,2014-09-18 13:34:00,
2014-09-18 09:39:00,63.7,62.8,29.98,NNE,15,1.0,1.0,97,0.00,OVC,,0.00,371.0,WeatherDisplay:10.37,2014-09-18 13:39:00,
2014-09-18 09:44:00,64.2,63.0,29.97,East,84,1.2,0.0,96,0.00,OVC,,0.00,397.0,WeatherDisplay:10.37,2014-09-18 13:44:00,
2014-09-18 09:49:00,64.7,62.9,29.98,ENE,74,1.2,1.2,94,0.00,OVC,,0.00,417.0,WeatherDisplay:10.37,2014-09-18 13:49:00,
2014-09-18 09:54:00,65.2,62.8,29.97,East,82,1.2,1.2,92,0.00,OVC,,0.00,415.0,WeatherDisplay:10.37,2014-09-18 13:54:00,
2014-09-18 09:59:00,65.7,62.4,29.97,ENE,76,0.0,0.0,89,0.00,OVC,,0.00,452.0,WeatherDisplay:10.37,2014-09-18 13:59:00,
2014-09-18 10:04:00,66.2,62.2,29.97,ENE,76,2.3,2.3,87,0.00,OVC,,0.00,466.0,WeatherDisplay:10.37,2014-09-18 14:04:00,
2014-09-18 10:09:00,67.0,63.0,29.97,ENE,76,0.0,0.0,87,0.00,OVC,,0.00,483.0,WeatherDisplay:10.37,2014-09-18 14:09:00,
2014-09-18 10:14:00,67.6,62.9,29.97,ENE,76,0.0,0.0,85,0.00,OVC,,0.00,499.0,WeatherDisplay:10.37,2014-09-18 14:14:00,
2014-09-18 10:19:00,68.2,62.5,29.98,East,96,1.2,1.2,82,0.00,OVC,,0.00,515.0,WeatherDisplay:10.37,2014-09-18 14:19:00,
2014-09-18 10:24:00,68.8,64.1,29.98,East,96,0.0,0.0,85,0.00,OVC,,0.00,529.0,WeatherDisplay:10.37,2014-09-18 14:24:00,
2014-09-18 10:29:00,69.2,63.1,29.98,East,96,1.0,0.0,81,0.00,OVC,,0.00,547.0,WeatherDisplay:10.37,2014-09-18 14:29:00,
2014-09-18 10:34:00,69.6,61.7,29.98,SSE,167,1.2,1.2,76,0.00,OVC,,0.00,566.0,WeatherDisplay:10.37,2014-09-18 14:34:00,
2014-09-18 10:39:00,70.1,61.0,29.98,South,187,1.2,1.2,73,0.00,OVC,,0.00,564.0,WeatherDisplay:10.37,2014-09-18 14:39:00,
2014-09-18 10:44:00,70.6,62.3,29.98,SSE,165,1.2,1.2,75,0.00,OVC,,0.00,552.0,WeatherDisplay:10.37,2014-09-18 14:44:00,
2014-09-18 10:49:00,71.2,63.6,29.98,South,171,0.0,0.0,77,0.00,OVC,,0.00,591.0,WeatherDisplay:10.37,2014-09-18 14:49:00,
2014-09-18 10:54:00,71.5,62.4,29.97,West,281,1.2,1.2,73,0.00,OVC,,0.00,596.0,WeatherDisplay:10.37,2014-09-18 14:54:00,
2014-09-18 10:59:00,71.8,61.9,29.98,West,281,2.3,2.3,71,0.00,OVC,,0.00,599.0,WeatherDisplay:10.37,2014-09-18 14:59:00,
2014-09-18 11:04:00,72.0,61.3,29.98,West,281,0.0,0.0,69,0.00,OVC,,0.00,631.0,WeatherDisplay:10.37,2014-09-18 15:04:00,
2014-09-18 11:09:00,72.3,63.2,29.98,WNW,294,1.2,1.2,73,0.00,OVC,,0.00,645.0,WeatherDisplay:10.37,2014-09-18 15:09:00,
2014-09-18 11:14:00,72.8,62.8,29.98,West,264,1.2,1.2,71,0.00,OVC,,0.00,654.0,WeatherDisplay:10.37,2014-09-18 15:14:00,
2014-09-18 11:19:00,73.3,62.9,29.98,South,179,1.2,0.0,70,0.00,OVC,,0.00,668.0,WeatherDisplay:10.37,2014-09-18 15:19:00,
2014-09-18 11:24:00,73.6,62.4,29.98,South,169,3.5,3.5,68,0.00,OVC,,0.00,679.0,WeatherDisplay:10.37,2014-09-18 15:24:00,
2014-09-18 11:29:00,73.8,62.6,29.98,SSW,209,3.5,3.5,68,0.00,OVC,,0.00,687.0,WeatherDisplay:10.37,2014-09-18 15:29:00,
2014-09-18 11:34:00,74.0,61.9,29.98,SSW,196,4.6,4.6,66,0.00,OVC,,0.00,701.0,WeatherDisplay:10.37,2014-09-18 15:34:00,
2014-09-18 11:40:00,74.0,61.0,29.98,SSW,205,2.0,5.0,64,0.00,OVC,,0.00,708.0,WeatherDisplay:10.37,2014-09-18 15:40:00,
2014-09-18 11:45:00,74.0,61.5,29.99,SSW,195,3.5,3.5,65,0.00,OVC,,0.00,721.0,WeatherDisplay:10.37,2014-09-18 15:45:00,
2014-09-18 11:48:00,74.1,61.6,29.99,WSW,238,3.5,3.5,65,0.00,OVC,,0.00,728.0,WeatherDisplay:10.37,2014-09-18 15:48:00,
2014-09-18 11:53:00,74.3,62.2,29.99,SW,225,2.3,2.3,66,0.00,OVC,,0.00,737.0,WeatherDisplay:10.37,2014-09-18 15:53:00,
2014-09-18 11:58:00,74.6,61.2,29.98,SW,224,1.2,1.2,63,0.00,OVC,,0.00,738.0,WeatherDisplay:10.37,2014-09-18 15:58:00,
2014-09-18 12:03:00,75.0,62.4,29.98,South,174,0.0,0.0,65,0.00,OVC,,0.00,752.0,WeatherDisplay:10.37,2014-09-18 16:03:00,
2014-09-18 12:08:00,75.5,62.0,29.98,SW,232,2.3,2.3,63,0.00,OVC,,0.00,763.0,WeatherDisplay:10.37,2014-09-18 16:08:00,
2014-09-18 12:13:00,76.0,62.9,29.99,WSW,244,3.0,3.0,64,0.00,OVC,,0.00,768.0,WeatherDisplay:10.37,2014-09-18 16:13:00,
2014-09-18 12:18:00,76.4,63.3,29.98,SW,235,2.3,2.3,64,0.00,OVC,,0.00,772.0,WeatherDisplay:10.37,2014-09-18 16:18:00,
2014-09-18 12:23:00,76.8,63.2,29.98,SSE,152,4.0,4.0,63,0.00,CLR,,0.00,779.0,WeatherDisplay:10.37,2014-09-18 16:23:00,
2014-09-18 12:28:00,76.9,62.0,29.98,South,187,1.2,0.0,60,0.00,CLR,,0.00,789.0,WeatherDisplay:10.37,2014-09-18 16:28:00,
2014-09-18 12:33:00,77.1,63.5,29.98,SW,226,2.3,2.3,63,0.00,CLR,,0.00,802.0,WeatherDisplay:10.37,2014-09-18 16:33:00,
2014-09-18 12:38:00,77.2,62.7,29.97,SW,225,3.5,3.5,61,0.00,CLR,,0.00,809.0,WeatherDisplay:10.37,2014-09-18 16:38:00,
2014-09-18 12:43:00,77.3,63.7,29.97,WNW,292,3.5,3.5,63,0.00,CLR,,0.00,814.0,WeatherDisplay:10.37,2014-09-18 16:43:00,
2014-09-18 12:48:00,77.3,62.8,29.97,NW,311,3.5,3.5,61,0.00,CLR,,0.00,817.0,WeatherDisplay:10.37,2014-09-18 16:48:00,
2014-09-18 12:53:00,77.2,62.7,29.97,WNW,301,1.2,1.2,61,0.00,CLR,,0.00,842.0,WeatherDisplay:10.37,2014-09-18 16:53:00,
2014-09-18 12:58:00,77.3,64.2,29.97,South,191,3.5,3.5,64,0.00,CLR,,0.00,865.0,WeatherDisplay:10.37,2014-09-18 16:58:00,
2014-09-18 13:03:00,77.6,64.5,29.97,SE,144,3.5,3.5,64,0.00,CLR,,0.00,879.0,WeatherDisplay:10.37,2014-09-18 17:03:00,
2014-09-18 13:08:00,77.5,63.0,29.97,SE,142,1.2,0.0,61,0.00,CLR,,0.00,919.0,WeatherDisplay:10.37,2014-09-18 17:08:00,
2014-09-18 13:13:00,77.7,64.1,29.97,South,189,3.5,3.5,63,0.00,CLR,,0.00,963.0,WeatherDisplay:10.37,2014-09-18 17:13:00,
2014-09-18 13:18:00,77.9,63.8,29.97,West,281,3.5,3.5,62,0.00,CLR,,0.00,914.0,WeatherDisplay:10.37,2014-09-18 17:18:00,
2014-09-18 13:23:00,78.2,65.5,29.97,South,176,3.5,3.5,65,0.00,CLR,,0.00,919.0,WeatherDisplay:10.37,2014-09-18 17:23:00,
2014-09-18 13:28:00,78.4,63.4,29.96,SSE,156,6.9,6.9,60,0.00,CLR,,0.00,1014.0,WeatherDisplay:10.37,2014-09-18 17:28:00,
2014-09-18 13:33:00,78.5,64.4,29.96,SSW,207,3.5,3.5,62,0.00,CLR,,0.00,939.0,WeatherDisplay:10.37,2014-09-18 17:33:00,
2014-09-18 13:38:00,78.8,65.6,29.96,WSW,237,7.0,7.0,64,0.00,CLR,,0.00,1004.0,WeatherDisplay:10.37,2014-09-18 17:38:00,
2014-09-18 13:39:00,78.7,63.2,29.96,SSW,202,6.9,6.9,59,0.00,CLR,,0.00,916.0,WeatherDisplay:10.37,2014-09-18 17:39:00,
2014-09-18 13:44:00,78.7,63.6,29.96,South,187,2.3,2.3,60,0.00,CLR,,0.00,935.0,WeatherDisplay:10.37,2014-09-18 17:44:00,
2014-09-18 13:49:00,78.6,62.6,29.96,NNE,19,3.5,3.5,58,0.00,CLR,,0.00,947.0,WeatherDisplay:10.37,2014-09-18 17:49:00,
2014-09-18 13:54:00,78.5,63.5,29.96,NNE,28,3.5,3.5,60,0.00,CLR,,0.00,947.0,WeatherDisplay:10.37,2014-09-18 17:54:00,
2014-09-18 13:59:00,78.5,63.5,29.96,South,188,3.5,3.5,60,0.00,CLR,,0.00,464.0,WeatherDisplay:10.37,2014-09-18 17:59:00,
2014-09-18 14:04:00,78.7,64.6,29.96,SW,225,2.3,2.3,62,0.00,CLR,,0.00,464.0,WeatherDisplay:10.37,2014-09-18 18:04:00,
2014-09-18 14:09:00,78.9,63.4,29.96,SE,144,2.3,2.3,59,0.00,CLR,,0.00,383.0,WeatherDisplay:10.37,2014-09-18 18:09:00,
2014-09-18 14:14:00,79.0,63.4,29.95,South,171,2.0,2.0,59,0.00,CLR,,0.00,436.0,WeatherDisplay:10.37,2014-09-18 18:14:00,
2014-09-18 14:19:00,79.2,63.6,29.95,SW,216,2.3,2.3,59,0.00,CLR,,0.00,425.0,WeatherDisplay:10.37,2014-09-18 18:19:00,
2014-09-18 14:24:00,79.1,62.1,29.95,South,173,5.8,5.8,56,0.00,CLR,,0.00,339.0,WeatherDisplay:10.37,2014-09-18 18:24:00,
2014-09-18 14:26:00,79.0,63.4,29.95,South,173,1.2,0.0,59,0.00,CLR,,0.00,341.0,WeatherDisplay:10.37,2014-09-18 18:26:00,
2014-09-18 14:31:00,79.1,62.1,29.95,SW,232,3.5,3.5,56,0.00,CLR,,0.00,450.0,WeatherDisplay:10.37,2014-09-18 18:31:00,
2014-09-18 14:36:00,79.0,62.0,29.95,South,183,6.9,6.9,56,0.00,CLR,,0.00,446.0,WeatherDisplay:10.37,2014-09-18 18:36:00,
2014-09-18 14:41:00,78.7,61.2,29.95,South,189,4.6,4.6,55,0.00,CLR,,0.00,476.0,WeatherDisplay:10.37,2014-09-18 18:41:00,
2014-09-18 14:46:00,78.3,61.8,29.95,South,186,3.5,3.5,57,0.00,CLR,,0.00,374.0,WeatherDisplay:10.37,2014-09-18 18:46:00,
2014-09-18 14:51:00,78.2,61.7,29.95,SSW,202,4.0,4.0,57,0.00,CLR,,0.00,431.0,WeatherDisplay:10.37,2014-09-18 18:51:00,
2014-09-18 14:56:00,78.6,62.1,29.94,WSW,239,3.5,3.5,57,0.00,CLR,,0.00,851.0,WeatherDisplay:10.37,2014-09-18 18:56:00,
2014-09-18 15:01:00,79.1,61.5,29.94,SW,219,3.5,3.5,55,0.00,CLR,,0.00,751.0,WeatherDisplay:10.37,2014-09-18 19:01:00,
2014-09-18 15:06:00,79.4,62.8,29.94,NW,306,3.5,3.5,57,0.00,CLR,,0.00,884.0,WeatherDisplay:10.37,2014-09-18 19:06:00,
2014-09-18 15:11:00,79.7,63.1,29.94,NW,309,3.5,3.5,57,0.00,CLR,,0.00,766.0,WeatherDisplay:10.37,2014-09-18 19:11:00,
2014-09-18 15:16:00,79.8,61.7,29.93,WSW,246,3.5,3.5,54,0.00,CLR,,0.00,772.0,WeatherDisplay:10.37,2014-09-18 19:16:00,
2014-09-18 15:21:00,80.0,62.4,29.93,WSW,249,3.5,3.5,55,0.00,CLR,,0.00,745.0,WeatherDisplay:10.37,2014-09-18 19:21:00,
2014-09-18 15:26:00,80.3,61.1,29.93,South,171,2.3,2.3,52,0.00,CLR,,0.00,714.0,WeatherDisplay:10.37,2014-09-18 19:26:00,
2014-09-18 15:31:00,80.7,60.9,29.93,South,173,3.5,3.5,51,0.00,CLR,,0.00,717.0,WeatherDisplay:10.37,2014-09-18 19:31:00,
2014-09-18 15:36:00,81.0,60.0,29.93,NW,312,2.3,2.3,49,0.00,CLR,,0.00,705.0,WeatherDisplay:10.37,2014-09-18 19:36:00,
2014-09-18 15:41:00,80.9,62.7,29.93,SW,221,4.0,4.0,54,0.00,CLR,,0.00,691.0,WeatherDisplay:10.37,2014-09-18 19:41:00,
2014-09-18 15:46:00,81.1,61.8,29.93,SSW,196,4.6,4.6,52,0.00,CLR,,0.00,682.0,WeatherDisplay:10.37,2014-09-18 19:46:00,
2014-09-18 15:51:00,81.1,62.9,29.93,NW,309,3.5,3.5,54,0.00,CLR,,0.00,671.0,WeatherDisplay:10.37,2014-09-18 19:51:00,
2014-09-18 15:56:00,80.8,62.1,29.92,NW,305,2.3,2.3,53,0.00,CLR,,0.00,656.0,WeatherDisplay:10.37,2014-09-18 19:56:00,
2014-09-18 16:01:00,80.9,60.5,29.92,WSW,253,3.5,3.5,50,0.00,CLR,,0.00,645.0,WeatherDisplay:10.37,2014-09-18 20:01:00,
2014-09-18 16:06:00,81.2,61.9,29.92,SW,217,3.5,3.5,52,0.00,CLR,,0.00,628.0,WeatherDisplay:10.37,2014-09-18 20:06:00,
2014-09-18 16:11:00,81.3,60.9,29.93,SW,217,0.0,0.1,50,0.00,CLR,,0.00,619.0,WeatherDisplay:10.37,2014-09-18 20:11:00,
2014-09-18 16:16:00,81.3,63.6,29.92,SW,217,1.2,1.2,55,0.00,FEW,,0.00,608.0,WeatherDisplay:10.37,2014-09-18 20:16:00,
2014-09-18 16:21:00,81.5,63.3,29.91,SSW,208,6.9,6.9,54,0.00,FEW,,0.00,592.0,WeatherDisplay:10.37,2014-09-18 20:21:00,
2014-09-18 16:26:00,81.3,63.6,29.92,SSW,196,1.2,1.2,55,0.00,FEW,,0.00,582.0,WeatherDisplay:10.37,2014-09-18 20:26:00,
2014-09-18 16:31:00,81.2,64.0,29.91,West,273,3.5,3.5,56,0.00,SCT,,0.00,573.0,WeatherDisplay:10.37,2014-09-18 20:31:00,
2014-09-18 16:36:00,81.3,61.4,29.91,SSE,167,2.3,2.3,51,0.00,SCT,,0.00,575.0,WeatherDisplay:10.37,2014-09-18 20:36:00,
2014-09-18 16:41:00,81.4,63.7,29.92,West,280,1.2,1.2,55,0.00,SCT,,0.00,575.0,WeatherDisplay:10.37,2014-09-18 20:41:00,
2014-09-18 16:46:00,81.6,62.8,29.92,SSE,158,4.6,4.6,53,0.00,SCT,,0.00,524.0,WeatherDisplay:10.37,2014-09-18 20:46:00,
2014-09-18 16:51:00,81.3,62.5,29.92,SW,229,5.0,5.0,53,0.00,SCT,,0.00,524.0,WeatherDisplay:10.37,2014-09-18 20:51:00,
2014-09-18 16:56:00,80.9,62.7,29.92,South,190,3.5,3.5,54,0.00,SCT,,0.00,476.0,WeatherDisplay:10.37,2014-09-18 20:56:00,
2014-09-18 17:01:00,80.7,62.5,29.92,SSW,193,4.6,4.6,54,0.00,SCT,,0.00,492.0,WeatherDisplay:10.37,2014-09-18 21:01:00,
2014-09-18 17:06:00,80.5,62.8,29.92,South,184,3.5,3.5,55,0.00,SCT,,0.00,473.0,WeatherDisplay:10.37,2014-09-18 21:06:00,
2014-09-18 17:11:00,80.4,62.8,29.92,SSW,192,5.8,5.8,55,0.00,SCT,,0.00,464.0,WeatherDisplay:10.37,2014-09-18 21:11:00,
2014-09-18 17:16:00,80.4,62.8,29.92,SW,234,4.6,4.6,55,0.00,BKN,,0.00,436.0,WeatherDisplay:10.37,2014-09-18 21:16:00,
2014-09-18 17:21:00,80.5,63.4,29.92,SSW,209,4.0,4.0,56,0.00,BKN,,0.00,418.0,WeatherDisplay:10.37,2014-09-18 21:21:00,
2014-09-18 17:22:00,80.5,62.3,29.92,SSW,193,5.8,5.8,54,0.00,BKN,,0.00,415.0,WeatherDisplay:10.37,2014-09-18 21:22:00,
2014-09-18 17:27:00,80.3,62.1,29.92,SW,235,5.8,5.8,54,0.00,BKN,,0.00,397.0,WeatherDisplay:10.37,2014-09-18 21:27:00,
2014-09-18 17:32:00,80.2,63.1,29.92,SSW,197,2.3,2.3,56,0.00,BKN,,0.00,371.0,WeatherDisplay:10.37,2014-09-18 21:32:00,
2014-09-18 17:37:00,80.0,62.4,29.92,WSW,250,3.5,3.5,55,0.00,BKN,,0.00,360.0,WeatherDisplay:10.37,2014-09-18 21:37:00,
2014-09-18 17:42:00,79.8,62.2,29.92,South,184,3.5,3.5,55,0.00,BKN,,0.00,346.0,WeatherDisplay:10.37,2014-09-18 21:42:00,
2014-09-18 17:47:00,79.5,62.4,29.92,SW,227,3.5,3.5,56,0.00,BKN,,0.00,313.0,WeatherDisplay:10.37,2014-09-18 21:47:00,
2014-09-18 17:52:00,79.4,62.3,29.92,SW,229,3.5,3.5,56,0.00,BKN,,0.00,311.0,WeatherDisplay:10.37,2014-09-18 21:52:00,
2014-09-18 17:57:00,79.3,62.2,29.91,South,175,5.8,5.8,56,0.00,BKN,,0.00,295.0,WeatherDisplay:10.37,2014-09-18 21:57:00,
2014-09-18 18:02:00,79.3,63.2,29.92,SW,232,2.3,2.3,58,0.00,BKN,,0.00,292.0,WeatherDisplay:10.37,2014-09-18 22:02:00,
2014-09-18 18:07:00,79.5,63.4,29.92,SE,142,3.5,3.5,58,0.00,BKN,,0.00,278.0,WeatherDisplay:10.37,2014-09-18 22:07:00,
2014-09-18 18:12:00,79.6,62.0,29.92,South,187,3.5,3.5,55,0.00,BKN,,0.00,192.0,WeatherDisplay:10.37,2014-09-18 22:12:00,
2014-09-18 18:17:00,79.5,62.4,29.92,South,184,3.5,3.5,56,0.00,BKN,,0.00,86.0,WeatherDisplay:10.37,2014-09-18 22:17:00,
2014-09-18 18:22:00,79.2,62.1,29.91,South,176,1.2,1.2,56,0.00,BKN,,0.00,49.0,WeatherDisplay:10.37,2014-09-18 22:22:00,
2014-09-18 18:27:00,78.9,63.8,29.91,South,176,0.0,0.0,60,0.00,CLR,,0.00,46.0,WeatherDisplay:10.37,2014-09-18 22:27:00,
2014-09-18 18:32:00,78.5,63.9,29.91,South,176,0.0,0.0,61,0.00,BKN,,0.00,102.0,WeatherDisplay:10.37,2014-09-18 22:32:00,
2014-09-18 18:37:00,78.1,63.6,29.92,South,176,2.3,2.3,61,0.00,BKN,,0.00,125.0,WeatherDisplay:10.37,2014-09-18 22:37:00,
2014-09-18 18:42:00,77.8,63.3,29.92,South,176,0.0,0.0,61,0.00,BKN,,0.00,165.0,WeatherDisplay:10.37,2014-09-18 22:42:00,
2014-09-18 18:45:00,77.7,65.0,29.92,South,176,0.0,0.0,65,0.00,BKN,,0.00,69.0,WeatherDisplay:10.37,2014-09-18 22:45:00,
2014-09-18 18:50:00,77.7,65.9,29.92,South,176,0.0,0.0,67,0.00,BKN,,0.00,79.0,WeatherDisplay:10.37,2014-09-18 22:50:00,
2014-09-18 18:55:00,77.4,66.4,29.92,South,176,0.0,0.0,69,0.00,BKN,,0.00,93.0,WeatherDisplay:10.37,2014-09-18 22:55:00,
2014-09-18 19:00:00,76.7,66.2,29.92,South,176,0.0,0.0,70,0.00,BKN,,0.00,95.0,WeatherDisplay:10.37,2014-09-18 23:00:00,
2014-09-18 19:05:00,76.1,66.4,29.92,South,176,0.0,0.0,72,0.00,BKN,,0.00,67.0,WeatherDisplay:10.37,2014-09-18 23:05:00,
2014-09-18 19:10:00,75.7,66.0,29.92,South,176,0.0,0.0,72,0.00,BKN,,0.00,76.0,WeatherDisplay:10.37,2014-09-18 23:10:00,
2014-09-18 19:15:00,75.2,65.6,29.92,South,176,0.0,0.0,72,0.00,BKN,,0.00,83.0,WeatherDisplay:10.37,2014-09-18 23:15:00,
2014-09-18 19:20:00,74.9,66.4,29.92,South,176,0.0,0.0,75,0.00,CLR,,0.00,49.0,WeatherDisplay:10.37,2014-09-18 23:20:00,
2014-09-18 19:25:00,74.5,66.8,29.93,South,176,0.0,0.0,77,0.00,CLR,,0.00,23.0,WeatherDisplay:10.37,2014-09-18 23:25:00,
2014-09-18 19:30:00,74.1,65.7,29.93,South,176,0.0,0.0,75,0.00,CLR,,0.00,16.0,WeatherDisplay:10.37,2014-09-18 23:30:00,
2014-09-18 19:35:00,73.7,66.4,29.93,South,176,0.0,0.0,78,0.00,CLR,,0.00,9.0,WeatherDisplay:10.37,2014-09-18 23:35:00,
2014-09-18 19:38:00,73.3,66.4,29.93,South,176,0.0,0.0,79,0.00,CLR,,0.00,9.0,WeatherDisplay:10.37,2014-09-18 23:38:00,
2014-09-18 19:43:00,72.8,66.6,29.94,South,176,0.0,0.0,81,0.00,CLR,,0.00,0.0,WeatherDisplay:10.37,2014-09-18 23:43:00,
2014-09-18 19:48:00,72.2,66.0,29.93,South,176,0.0,0.0,81,0.00,CLR,,0.00,0.0,WeatherDisplay:10.37,2014-09-18 23:48:00,
2014-09-18 19:53:00,71.7,64.5,29.94,South,176,0.0,0.0,78,0.00,CLR,,0.00,0.0,WeatherDisplay:10.37,2014-09-18 23:53:00,
2014-09-18 19:58:00,71.3,64.8,29.93,South,176,0.0,0.0,80,0.00,CLR,,0.00,0.0,WeatherDisplay:10.37,2014-09-18 23:58:00,